Weather History for LIRF - March, 2013

Change the Weather History Date:

Tuesday, March 5, 2013

  Actual Average Record
Temperature  
Mean Temperature 49 °F -  
Max Temperature 59 °F 61 °F 73 °F (2002)
Min Temperature 39 °F 43 °F 33 °F (2004)
Degree Days  
Heating Degree Days 16    
Moisture  
Dew Point 40 °F    
Average Humidity 72    
Maximum Humidity 93    
Minimum Humidity 41    
Precipitation  
Precipitation 0.00 in 0.08 in - ()
Sea Level Pressure  
Sea Level Pressure 30.10 in    
Wind  
Wind Speed 7 mph ()    
Max Wind Speed 15 mph    
Max Gust Speed -    
Visibility 5.7 miles    
Events Rain    
Averages and records for this station are not official NWS values.
T = Trace of Precipitation, MM = Missing Value Source: Averaged Metar Reports

Daily Weather History Graph

Daily Weather History Graph

Search for Another Location

Airport or City:

Trip Planner

Search our weather history database for the weather conditions in past years. The results will help you decide how hot, cold, wet, or windy it might be!

Date:

Astronomy

Mar. 05, 2013 Rise Set
Actual Time 6:39 AM CET 6:06 PM CET
Civil Twilight 6:11 AM CET 6:33 PM CET
Nautical Twilight 5:39 AM CET 7:06 PM CET
Astronomical Twilight 5:07 AM CET 7:38 PM CET
Moon 1:38 AM CET (3/5) 11:24 AM CET (3/5)
Length of Visible Light 12h 22m
Length of Day
11h 26m
Last Quarter, 44% of the Moon is Illuminated
Mar 5
Last Quarter
Mar 11
New
Mar 19
First Quarter
Mar 27
Full
Apr 3
Last Quarter

Hourly Weather History & Observations

Time (CET) Temp. Windchill Dew Point Humidity Pressure Visibility Wind Dir Wind Speed Gust Speed Precip Events Conditions
12:20 AM 42.8 °F 39.3 °F 39.2 °F 87% 30.18 in - East 5.8 mph - N/A   Clear
12:50 AM 41.0 °F 35.8 °F 39.2 °F 93% 30.18 in - East 8.1 mph - N/A   Clear
1:20 AM 41.0 °F 35.2 °F 39.2 °F 93% 30.18 in - East 9.2 mph - N/A   Clear
1:50 AM 41.0 °F 38.0 °F 39.2 °F 93% 30.18 in - East 4.6 mph - N/A   Clear
2:20 AM 41.0 °F 37.1 °F 37.4 °F 87% 30.18 in 5.0 mi East 5.8 mph - N/A   Unknown
2:50 AM 39.2 °F 35.0 °F 37.4 °F 93% 30.18 in 5.0 mi East 5.8 mph - N/A   Unknown
3:20 AM 39.2 °F 34.2 °F 37.4 °F 93% 30.18 in 5.0 mi East 6.9 mph - N/A   Unknown
3:50 AM 41.0 °F 37.1 °F 37.4 °F 87% 30.18 in 5.0 mi East 5.8 mph - N/A   Unknown
4:20 AM 39.2 °F 34.2 °F 37.4 °F 93% 30.15 in 5.0 mi East 6.9 mph - N/A   Unknown
4:50 AM 39.2 °F 33.6 °F 37.4 °F 93% 30.15 in 5.0 mi East 8.1 mph - N/A   Unknown
5:20 AM 39.2 °F 33.6 °F 37.4 °F 93% 30.15 in 5.0 mi East 8.1 mph - N/A   Unknown
5:50 AM 41.0 °F 39.0 °F 37.4 °F 87% 30.15 in 5.0 mi ENE 3.5 mph - N/A   Unknown
6:20 AM 41.0 °F 37.1 °F 37.4 °F 87% 30.12 in 5.0 mi ENE 5.8 mph - N/A   Unknown
6:50 AM 41.0 °F 37.1 °F 37.4 °F 87% 30.12 in 5.0 mi ENE 5.8 mph - N/A   Unknown
7:20 AM 41.0 °F 37.1 °F 39.2 °F 93% 30.12 in 5.0 mi ENE 5.8 mph - N/A   Unknown
7:50 AM 42.8 °F 40.1 °F 39.2 °F 87% 30.15 in 5.0 mi East 4.6 mph - N/A   Unknown
8:20 AM 44.6 °F 42.2 °F 41.0 °F 87% 30.15 in 5.0 mi East 4.6 mph - N/A   Unknown
8:50 AM 46.4 °F 44.3 °F 41.0 °F 81% 30.15 in 5.0 mi East 4.6 mph - N/A   Unknown
9:20 AM 48.2 °F - 42.8 °F 82% 30.15 in 5.6 mi East 5.8 mph - N/A   Partly Cloudy
9:50 AM 50.0 °F - 42.8 °F 76% 30.18 in 5.6 mi East 6.9 mph - N/A   Partly Cloudy
10:20 AM 51.8 °F - 42.8 °F 71% 30.15 in 5.6 mi East 6.9 mph - N/A   Unknown
10:50 AM 51.8 °F - 42.8 °F 71% 30.15 in 5.6 mi East 6.9 mph - N/A   Unknown
11:20 AM 53.6 °F - 42.8 °F 67% 30.15 in 5.6 mi East 8.1 mph - N/A   Unknown
11:50 AM 55.4 °F - 42.8 °F 63% 30.12 in 5.6 mi East 6.9 mph - N/A   Unknown
12:20 PM 57.2 °F - 41.0 °F 55% 30.12 in 5.6 mi ESE 5.8 mph - N/A   Unknown
12:50 PM 57.2 °F - 41.0 °F 55% 30.12 in 6.2 mi SE 8.1 mph - N/A   Partly Cloudy
1:20 PM 57.2 °F - 44.6 °F 63% 30.12 in 6.2 mi SSE 8.1 mph - N/A   Partly Cloudy
1:50 PM 57.2 °F - 42.8 °F 59% 30.09 in 6.2 mi SSE 8.1 mph - N/A   Partly Cloudy
2:20 PM 57.2 °F - 39.2 °F 51% 30.09 in 6.2 mi SE 9.2 mph - N/A   Partly Cloudy
2:50 PM 59.0 °F - 35.6 °F 42% 30.06 in 6.2 mi ESE 11.5 mph - N/A   Light Drizzle
3:20 PM 59.0 °F - 35.6 °F 42% 30.04 in 6.2 mi ESE 11.5 mph - N/A   Partly Cloudy
3:50 PM 57.2 °F - 33.8 °F 41% 30.04 in 6.2 mi ESE 15.0 mph - N/A   Partly Cloudy
4:20 PM 57.2 °F - 35.6 °F 44% 30.04 in 6.2 mi SE 10.4 mph - N/A   Partly Cloudy
4:50 PM 57.2 °F - 37.4 °F 48% 30.04 in 6.2 mi ESE 9.2 mph - N/A   Partly Cloudy
5:20 PM 55.4 °F - 37.4 °F 51% 30.04 in 6.2 mi SE 4.6 mph - N/A   Partly Cloudy
5:50 PM 57.2 °F - 35.6 °F 44% 30.04 in 6.2 mi SSE 10.4 mph - N/A   Partly Cloudy
6:20 PM 57.2 °F - 37.4 °F 48% 30.01 in 6.2 mi SSE 15.0 mph - N/A   Light Drizzle
6:50 PM 53.6 °F - 42.8 °F 67% 30.04 in 6.2 mi SSE 13.8 mph - N/A   Light Drizzle
7:20 PM 53.6 °F - 41.0 °F 62% 30.04 in 6.2 mi SE 11.5 mph - N/A Rain Light Rain
7:50 PM 51.8 °F - 42.8 °F 71% 30.04 in 6.2 mi East 9.2 mph - N/A Rain Light Rain
8:20 PM 50.0 °F - 42.8 °F 76% 30.04 in 6.2 mi ENE 9.2 mph - N/A Rain Light Rain
8:50 PM 50.0 °F - 41.0 °F 71% 30.04 in 6.2 mi ENE 9.2 mph - N/A Rain Light Rain
9:20 PM 48.2 °F - 42.8 °F 82% 30.04 in 6.2 mi ENE 6.9 mph - N/A   Scattered Clouds
9:50 PM 48.2 °F - 42.8 °F 82% 30.04 in 6.2 mi ENE 5.8 mph - N/A   Scattered Clouds
10:20 PM 50.0 °F - 42.8 °F 76% 30.01 in 6.2 mi East 11.5 mph - N/A   Scattered Clouds
10:50 PM 51.8 °F - 41.0 °F 67% 29.98 in 6.2 mi East 11.5 mph - N/A   Scattered Clouds
11:20 PM 51.8 °F - 41.0 °F 67% 29.95 in 6.2 mi East 11.5 mph - N/A   Scattered Clouds
11:50 PM 51.8 °F - 42.8 °F 71% 29.95 in 6.2 mi East 8.1 mph - N/A   Scattered Clouds